{"data":{"norad_id":65367,"intl_designator":"2025-190S","name":"STARLINK-34946","alt_names":[],"object_type":"PAYLOAD","status":"ACTIVE","operator":null,"country":"US","launch_date":"2025-08-28","launch_site_code":"AFETR","launch_vehicle":null,"mission":null,"orbit_class":"UNKNOWN","rcs_meters":null,"size_class":null,"mass_kg":null,"dimensions":null,"purposes":["comms"],"wikipedia_slug":null,"has_3d_model":false,"image_url":null,"decayed_at":null,"tle_current":{"epoch":"2026-09-20T12:23:47.302080Z","epoch_age_seconds":116029,"freshness":"FRESH","line1":"1 65367U 25190S   26263.51651970  .00022771  00000+0  68293-3 0  9996","line2":"2 65367  53.1595 339.7091 0001094  74.7986 285.3137 15.34404746 59634","mean_motion":15.34404746,"eccentricity":0.0001094,"inclination_deg":53.1595,"raan_deg":339.7091,"arg_perigee_deg":74.7986,"mean_anomaly_deg":285.3137,"bstar":0.00068293,"rev_number":5963,"period_min":93.847467804952,"perigee_km":461.94074775222,"apogee_km":463.43752051036,"semimajor_km":6840.8261341313,"source":"CELESTRAK","updated_at":"2026-09-21T09:00:35.578467Z"}}}